| time (UTC) | temp C | wind direction | speed KPH | gust KPH | rain 1hr cm | rain 24hr cm | rain mn cm | humidity % | barometer mb |
| 20260505055114 | 17 | 217 | 0.0 | 3.2 | 0.00 | 0.00 | 0.00 | 59 | 1008.9 |
| 20260505054954 | 17 | 173 | 0.0 | 1.6 | 0.00 | 0.00 | 0.00 | 59 | 1009.0 |
| 20260505053854 | 17 | 207 | 0.0 | 3.2 | 0.00 | 0.00 | 0.00 | 58 | 1009.0 |
| 20260505053352 | 17 | 180 | 0.0 | 3.2 | 0.00 | 0.00 | 0.00 | 58 | 1008.9 |
| 20260505052850 | 17 | 224 | 0.0 | 3.2 | 0.00 | 0.00 | 0.00 | 57 | 1008.9 |
| 20260505052353 | 17 | 167 | 0.0 | 1.6 | 0.00 | 0.00 | 0.00 | 57 | 1008.9 |
| 20260505051847 | 17 | 159 | 0.0 | 1.6 | 0.00 | 0.00 | 0.00 | 56 | 1008.9 |
| 20260505051341 | 18 | 157 | 0.0 | 1.6 | 0.00 | 0.00 | 0.00 | 56 | 1009.0 |
| 20260505050834 | 18 | 162 | 0.0 | 1.6 | 0.00 | 0.00 | 0.00 | 56 | 1008.9 |
| 20260505050328 | 18 | 176 | 0.0 | 0.0 | 0.00 | 0.00 | 0.00 | 55 | 1008.9 |
| 20260505041739 | 18 | 213 | 0.0 | 1.6 | 0.00 | 0.00 | 0.00 | 52 | 1008.5 |
| 20260505041241 | 18 | 165 | 0.0 | 1.6 | 0.00 | 0.00 | 0.00 | 52 | 1008.4 |
| 20260505040737 | 18 | 150 | 0.0 | 1.6 | 0.00 | 0.00 | 0.00 | 53 | 1008.4 |
| 20260505040237 | 18 | 150 | 0.0 | 1.6 | 0.00 | 0.00 | 0.00 | 52 | 1008.3 |
| 20260505040000 | 18 | 36 | 0.0 | 1.6 | 0.00 | 0.00 | 0.00 | 53 | 1008.3 |
| 20260505035233 | 18 | 217 | 0.0 | 1.6 | 0.00 | 0.00 | 0.00 | 53 | 1008.3 |
| 20260505034732 | 18 | 217 | 0.0 | 1.6 | 0.00 | 0.00 | 0.00 | 53 | 1008.3 |
| 20260505034233 | 18 | 216 | 0.0 | 1.6 | 0.00 | 0.00 | 0.00 | 53 | 1008.3 |
| 20260505033729 | 18 | 216 | 0.0 | 1.6 | 0.00 | 0.00 | 0.00 | 53 | 1008.4 |
| 20260505033504 | 18 | 155 | 0.0 | 0.0 | 0.00 | 0.00 | 0.00 | 53 | 1008.4 |
| 20260505033218 | 18 | 154 | 0.0 | 0.0 | 0.00 | 0.00 | 0.00 | 53 | 1008.4 |
| 20260505032453 | 18 | 155 | 0.0 | 0.0 | 0.00 | 0.00 | 0.00 | 53 | 1008.3 |
| 20260505031727 | 18 | 155 | 0.0 | 0.0 | 0.00 | 0.00 | 0.00 | 52 | 1008.3 |
| 20260505031448 | 18 | 155 | 0.0 | 0.0 | 0.00 | 0.00 | 0.00 | 52 | 1008.3 |
| 20260505030725 | 18 | 155 | 0.0 | 0.0 | 0.00 | 0.00 | 0.00 | 52 | 1008.4 |
| 20260505030226 | 18 | 154 | 0.0 | 0.0 | 0.00 | 0.00 | 0.00 | 52 | 1008.3 |
| 20260505025947 | 19 | 155 | 0.0 | 0.0 | 0.00 | 0.00 | 0.00 | 52 | 1008.4 |
| 20260505025704 | 19 | 155 | 0.0 | 0.0 | 0.00 | 0.00 | 0.00 | 51 | 1008.4 |
| 20260505025315 | 19 | 154 | 0.0 | 0.0 | 0.00 | 0.00 | 0.00 | 51 | 1008.4 |
| 20260505024452 | 19 | 155 | 0.0 | 0.0 | 0.00 | 0.00 | 0.00 | 51 | 1008.4 |
| 20260505024202 | 19 | 173 | 0.0 | 0.0 | 0.00 | 0.00 | 0.00 | 51 | 1008.4 |
| 20260505023227 | 19 | 173 | 0.0 | 1.6 | 0.00 | 0.00 | 0.00 | 51 | 1008.4 |
| 20260505022727 | 19 | 173 | 0.0 | 1.6 | 0.00 | 0.00 | 0.00 | 50 | 1008.4 |
| 20260505022226 | 19 | 278 | 0.0 | 1.6 | 0.00 | 0.00 | 0.00 | 50 | 1008.4 |
| 20260505021725 | 19 | 278 | 0.0 | 1.6 | 0.00 | 0.00 | 0.00 | 50 | 1008.3 |
| 20260505021226 | 20 | 278 | 0.0 | 1.6 | 0.00 | 0.00 | 0.00 | 50 | 1008.3 |
| 20260505020725 | 20 | 278 | 0.0 | 1.6 | 0.00 | 0.00 | 0.00 | 50 | 1008.2 |
| 20260505020226 | 20 | 278 | 0.0 | 1.6 | 0.00 | 0.00 | 0.00 | 49 | 1008.3 |
| 20260505020204 | 20 | 279 | 0.0 | 1.6 | 0.00 | 0.00 | 0.00 | 49 | 1008.3 |
| 20260505015225 | 20 | 279 | 0.0 | 0.0 | 0.00 | 0.00 | 0.00 | 48 | 1008.3 |
| 20260505014717 | 20 | 279 | 0.0 | 0.0 | 0.00 | 0.00 | 0.00 | 48 | 1008.2 |
| 20260505014212 | 20 | 279 | 0.0 | 1.6 | 0.00 | 0.00 | 0.00 | 48 | 1008.2 |
| 20260505013706 | 20 | 279 | 0.0 | 1.6 | 0.00 | 0.00 | 0.00 | 48 | 1008.1 |
| 20260505013200 | 20 | 244 | 0.0 | 1.6 | 0.00 | 0.00 | 0.00 | 47 | 1008.0 |
| 20260505012654 | 20 | 12 | 0.0 | 1.6 | 0.00 | 0.00 | 0.00 | 47 | 1007.9 |
| 20260505012148 | 20 | 12 | 0.0 | 1.6 | 0.00 | 0.00 | 0.00 | 47 | 1007.8 |
| 20260505011642 | 20 | 12 | 0.0 | 1.6 | 0.00 | 0.00 | 0.00 | 47 | 1007.8 |
| 20260505011136 | 21 | 12 | 0.0 | 1.6 | 0.00 | 0.00 | 0.00 | 46 | 1007.7 |
| 20260505010900 | 21 | 13 | 0.0 | 1.6 | 0.00 | 0.00 | 0.00 | 46 | 1007.7 |
| 20260505010124 | 21 | 13 | 0.0 | 0.0 | 0.00 | 0.00 | 0.00 | 46 | 1007.7 |
| 20260505005618 | 21 | 22 | 0.0 | 0.0 | 0.00 | 0.00 | 0.00 | 45 | 1007.7 |
| 20260505005112 | 21 | 23 | 0.0 | 0.0 | 0.00 | 0.00 | 0.00 | 45 | 1007.6 |
| 20260505004606 | 21 | 23 | 0.0 | 0.0 | 0.00 | 0.00 | 0.00 | 44 | 1007.5 |
| 20260505004334 | 22 | 23 | 0.0 | 1.6 | 0.00 | 0.00 | 0.00 | 44 | 1007.5 |
| 20260505003554 | 22 | 22 | 0.0 | 1.6 | 0.00 | 0.00 | 0.00 | 43 | 1007.6 |
| 20260505003048 | 22 | 22 | 0.0 | 1.6 | 0.00 | 0.00 | 0.00 | 43 | 1007.6 |
| 20260505002542 | 22 | 226 | 0.0 | 1.6 | 0.00 | 0.00 | 0.00 | 44 | 1007.7 |
| 20260505002036 | 22 | 229 | 0.0 | 1.6 | 0.00 | 0.00 | 0.00 | 43 | 1007.7 |
| 20260505001757 | 22 | 37 | 0.0 | 0.0 | 0.00 | 0.00 | 0.00 | 43 | 1007.6 |
| 20260505001025 | 22 | 37 | 0.0 | 1.6 | 0.00 | 0.00 | 0.00 | 43 | 1007.7 |
| 20260505000736 | 22 | 89 | 0.0 | 1.6 | 0.00 | 0.00 | 0.00 | 42 | 1007.8 |
| 20260505000012 | 22 | 355 | 0.0 | 1.6 | 0.00 | 0.00 | 0.00 | 42 | 1007.7 |
| 20260504235506 | 22 | 352 | 0.0 | 1.6 | 0.00 | 0.00 | 0.00 | 41 | 1007.7 |
| 20260504235000 | 22 | 352 | 0.0 | 1.6 | 0.00 | 0.00 | 0.00 | 41 | 1007.7 |
| 20260504234453 | 22 | 27 | 0.0 | 11.3 | 0.00 | 0.00 | 0.00 | 40 | 1007.7 |
| 20260504234206 | 22 | 225 | 0.0 | 11.3 | 0.00 | 0.00 | 0.00 | 39 | 1007.7 |
| 20260504233442 | 22 | 119 | 0.0 | 3.2 | 0.00 | 0.00 | 0.00 | 39 | 1007.6 |
| 20260504233202 | 22 | 163 | 0.0 | 0.0 | 0.00 | 0.00 | 0.00 | 39 | 1007.6 |
| 20260504232430 | 23 | 163 | 0.0 | 3.2 | 0.00 | 0.00 | 0.00 | 38 | 1007.5 |
| 20260504231924 | 23 | 151 | 0.0 | 3.2 | 0.00 | 0.00 | 0.00 | 37 | 1007.5 |
| 20260504231417 | 23 | 39 | 0.0 | 1.6 | 0.00 | 0.00 | 0.00 | 36 | 1007.4 |
| 20260504230912 | 23 | 232 | 0.0 | 4.8 | 0.00 | 0.00 | 0.00 | 36 | 1007.4 |
| 20260504230407 | 23 | 71 | 0.0 | 4.8 | 0.00 | 0.00 | 0.00 | 36 | 1007.4 |
| 20260504225900 | 24 | 141 | 0.0 | 6.4 | 0.00 | 0.00 | 0.00 | 36 | 1007.4 |
| 20260504225354 | 24 | 15 | 1.6 | 6.4 | 0.00 | 0.00 | 0.00 | 35 | 1007.5 |
| 20260504225114 | 24 | 136 | 0.0 | 4.8 | 0.00 | 0.00 | 0.00 | 35 | 1007.5 |
| 20260504224615 | 25 | 44 | 1.6 | 8.0 | 0.00 | 0.00 | 0.00 | 34 | 1007.6 |
| 20260504223836 | 25 | 66 | 1.6 | 8.0 | 0.00 | 0.00 | 0.00 | 34 | 1007.7 |
| 20260504223331 | 25 | 243 | 1.6 | 6.4 | 0.00 | 0.00 | 0.00 | 34 | 1007.6 |
| 20260504222824 | 25 | 203 | 1.6 | 6.4 | 0.00 | 0.00 | 0.00 | 33 | 1007.6 |
| 20260504222318 | 25 | 211 | 0.0 | 6.4 | 0.00 | 0.00 | 0.00 | 33 | 1007.6 |
| 20260504221812 | 26 | 274 | 0.0 | 6.4 | 0.00 | 0.00 | 0.00 | 33 | 1007.5 |
| 20260504221306 | 26 | 179 | 1.6 | 8.0 | 0.00 | 0.00 | 0.00 | 33 | 1007.4 |
| 20260504220800 | 26 | 249 | 1.6 | 8.0 | 0.00 | 0.00 | 0.00 | 32 | 1007.4 |
| 20260504220254 | 26 | 96 | 1.6 | 3.2 | 0.00 | 0.00 | 0.00 | 32 | 1007.5 |
| 20260504215748 | 26 | 212 | 0.0 | 3.2 | 0.00 | 0.00 | 0.00 | 32 | 1007.4 |
| 20260504215242 | 26 | 186 | 0.0 | 6.4 | 0.00 | 0.00 | 0.00 | 31 | 1007.4 |
| 20260504215001 | 26 | 151 | 1.6 | 6.4 | 0.00 | 0.00 | 0.00 | 31 | 1007.4 |
| 20260504214230 | 27 | 301 | 1.6 | 9.7 | 0.00 | 0.00 | 0.00 | 31 | 1007.4 |
| 20260504213947 | 27 | 162 | 1.6 | 9.7 | 0.00 | 0.00 | 0.00 | 30 | 1007.4 |
| 20260504213218 | 27 | 223 | 1.6 | 8.0 | 0.00 | 0.00 | 0.00 | 30 | 1007.3 |
| 20260504212712 | 27 | 44 | 1.6 | 8.0 | 0.00 | 0.00 | 0.00 | 30 | 1007.3 |
| 20260504212206 | 27 | 215 | 1.6 | 4.8 | 0.00 | 0.00 | 0.00 | 30 | 1007.4 |
| 20260504211700 | 27 | 165 | 1.6 | 6.4 | 0.00 | 0.00 | 0.00 | 30 | 1007.4 |
| 20260504211419 | 28 | 15 | 1.6 | 6.4 | 0.00 | 0.00 | 0.00 | 29 | 1007.4 |
| 20260504210647 | 28 | 158 | 0.0 | 6.4 | 0.00 | 0.00 | 0.00 | 31 | 1007.4 |
| 20260504210143 | 27 | 153 | 0.0 | 6.4 | 0.00 | 0.00 | 0.00 | 30 | 1007.3 |
| 20260504205636 | 27 | 146 | 0.0 | 3.2 | 0.00 | 0.00 | 0.00 | 30 | 1007.4 |
| 20260504205131 | 27 | 151 | 1.6 | 3.2 | 0.00 | 0.00 | 0.00 | 30 | 1007.4 |
| 20260504204624 | 27 | 214 | 1.6 | 3.2 | 0.00 | 0.00 | 0.00 | 29 | 1007.4 |
| 20260504204118 | 28 | 181 | 1.6 | 9.7 | 0.00 | 0.00 | 0.00 | 31 | 1007.5 |
| 20260504203612 | 27 | 207 | 1.6 | 9.7 | 0.00 | 0.00 | 0.00 | 30 | 1007.5 |
| 20260504203106 | 27 | 47 | 1.6 | 6.4 | 0.00 | 0.00 | 0.00 | 31 | 1007.5 |
| 20260504202600 | 27 | 53 | 1.6 | 14.5 | 0.00 | 0.00 | 0.00 | 30 | 1007.6 |
| 20260504202054 | 27 | 221 | 1.6 | 14.5 | 0.00 | 0.00 | 0.00 | 30 | 1007.7 |
| 20260504201548 | 27 | 183 | 1.6 | 8.0 | 0.00 | 0.00 | 0.00 | 31 | 1007.7 |
| 20260504201042 | 27 | 59 | 1.6 | 8.0 | 0.00 | 0.00 | 0.00 | 29 | 1007.9 |
| 20260504200536 | 27 | 257 | 1.6 | 6.4 | 0.00 | 0.00 | 0.00 | 30 | 1007.9 |
| 20260504200031 | 27 | 140 | 1.6 | 4.8 | 0.00 | 0.00 | 0.00 | 30 | 1007.9 |
| 20260504195524 | 27 | 159 | 1.6 | 4.8 | 0.00 | 0.00 | 0.00 | 31 | 1007.9 |
| 20260504195018 | 27 | 170 | 1.6 | 9.7 | 0.00 | 0.00 | 0.00 | 30 | 1007.9 |
| 20260504194512 | 27 | 219 | 0.0 | 9.7 | 0.00 | 0.00 | 0.00 | 30 | 1008.0 |
| 20260504194006 | 27 | 221 | 1.6 | 4.8 | 0.00 | 0.00 | 0.00 | 31 | 1008.1 |
| 20260504193459 | 26 | 169 | 1.6 | 6.4 | 0.00 | 0.00 | 0.00 | 32 | 1008.1 |
| 20260504192954 | 26 | 222 | 1.6 | 6.4 | 0.00 | 0.00 | 0.00 | 31 | 1008.3 |
| 20260504192448 | 26 | 340 | 1.6 | 4.8 | 0.00 | 0.00 | 0.00 | 33 | 1008.5 |
| 20260504191948 | 26 | 101 | 1.6 | 9.7 | 0.00 | 0.00 | 0.00 | 32 | 1008.6 |
| 20260504191449 | 26 | 120 | 1.6 | 9.7 | 0.00 | 0.00 | 0.00 | 32 | 1008.5 |
| 20260504191210 | 26 | 160 | 1.6 | 6.4 | 0.00 | 0.00 | 0.00 | 32 | 1008.5 |
| 20260504190448 | 25 | 232 | 1.6 | 6.4 | 0.00 | 0.00 | 0.00 | 31 | 1008.8 |
| 20260504185947 | 25 | 110 | 1.6 | 6.4 | 0.00 | 0.00 | 0.00 | 31 | 1008.8 |
| 20260504185444 | 25 | 161 | 1.6 | 6.4 | 0.00 | 0.00 | 0.00 | 31 | 1008.8 |
| 20260504185206 | 25 | 203 | 3.2 | 11.3 | 0.00 | 0.00 | 0.00 | 32 | 1009.0 |
| 20260504184445 | 25 | 144 | 1.6 | 11.3 | 0.00 | 0.00 | 0.00 | 32 | 1009.1 |
| 20260504183942 | 25 | 167 | 1.6 | 6.4 | 0.00 | 0.00 | 0.00 | 33 | 1009.0 |
| 20260504183440 | 24 | 56 | 1.6 | 4.8 | 0.00 | 0.00 | 0.00 | 32 | 1009.1 |
| 20260504182941 | 24 | 58 | 1.6 | 16.1 | 0.00 | 0.00 | 0.00 | 31 | 1009.1 |
| 20260504182441 | 24 | 234 | 1.6 | 16.1 | 0.00 | 0.00 | 0.00 | 31 | 1009.1 |
| 20260504181939 | 24 | 85 | 1.6 | 8.0 | 0.00 | 0.00 | 0.00 | 30 | 1009.1 |
| 20260504181439 | 24 | 118 | 1.6 | 11.3 | 0.00 | 0.00 | 0.00 | 30 | 1009.2 |
| 20260504180938 | 24 | 150 | 1.6 | 11.3 | 0.00 | 0.00 | 0.00 | 31 | 1009.3 |
| 20260504180706 | 24 | 224 | 1.6 | 4.8 | 0.00 | 0.00 | 0.00 | 33 | 1009.4 |
| 20260504175935 | 23 | 34 | 1.6 | 8.0 | 0.00 | 0.00 | 0.00 | 35 | 1009.4 |
| 20260504175657 | 23 | 200 | 3.2 | 8.0 | 0.00 | 0.00 | 0.00 | 32 | 1009.4 |
| 20260504174935 | 23 | 180 | 1.6 | 8.0 | 0.00 | 0.00 | 0.00 | 33 | 1009.5 |
| 20260504174435 | 23 | 225 | 1.6 | 8.0 | 0.00 | 0.00 | 0.00 | 32 | 1009.4 |
| 20260504173936 | 23 | 211 | 1.6 | 8.0 | 0.00 | 0.00 | 0.00 | 31 | 1009.5 |
| 20260504173926 | 24 | 224 | 1.6 | 8.0 | 0.00 | 0.00 | 0.00 | 32 | 1009.7 |
| 20260504172935 | 24 | 233 | 1.6 | 9.7 | 0.00 | 0.00 | 0.00 | 32 | 1009.7 |
| 20260504172658 | 25 | 122 | 1.6 | 9.7 | 0.00 | 0.00 | 0.00 | 34 | 1009.7 |
| 20260504172427 | 25 | 60 | 1.6 | 9.7 | 0.00 | 0.00 | 0.00 | 32 | 1009.7 |
| 20260504171431 | 24 | 322 | 3.2 | 11.3 | 0.00 | 0.00 | 0.00 | 33 | 1009.9 |
| 20260504171147 | 24 | 37 | 1.6 | 11.3 | 0.00 | 0.00 | 0.00 | 32 | 1009.9 |
| 20260504170431 | 24 | 51 | 3.2 | 8.0 | 0.00 | 0.00 | 0.00 | 33 | 1010.0 |
| 20260504160426 | 22 | 142 | 1.6 | 6.4 | 0.00 | 0.00 | 0.00 | 35 | 1010.5 |
| 20260504150853 | 19 | 41 | 0.0 | 6.4 | 0.00 | 0.00 | 0.00 | 41 | 1011.0 |
| 20260504150347 | 19 | 198 | 0.0 | 4.8 | 0.00 | 0.00 | 0.00 | 43 | 1011.0 |
| 20260504140741 | 16 | 5 | 0.0 | 4.8 | 0.00 | 0.00 | 0.00 | 49 | 1011.3 |
| 20260504140235 | 16 | 105 | 1.6 | 9.7 | 0.00 | 0.00 | 0.00 | 51 | 1011.4 |
| 20260504130629 | 14 | 217 | 1.6 | 8.0 | 0.00 | 0.00 | 0.00 | 56 | 1011.7 |
| 20260504130123 | 13 | 123 | 0.0 | 6.4 | 0.00 | 0.00 | 0.00 | 57 | 1011.8 |
| 20260504110405 | 10 | 213 | 0.0 | 0.0 | 0.00 | 0.00 | 0.00 | 68 | 1012.0 |
| 20260504100335 | 10 | 213 | 0.0 | 0.0 | 0.00 | 0.00 | 0.00 | 63 | 1011.9 |
| 20260504081748 | 11 | 213 | 0.0 | 0.0 | 0.00 | 0.00 | 0.00 | 58 | 1012.3 |
| 20260504081506 | 11 | 213 | 0.0 | 0.0 | 0.00 | 0.00 | 0.00 | 56 | 1012.3 |
| 20260504080749 | 11 | 213 | 0.0 | 0.0 | 0.00 | 0.00 | 0.00 | 56 | 1012.2 |
| 20260504080249 | 11 | 213 | 0.0 | 0.0 | 0.00 | 0.00 | 0.00 | 56 | 1012.2 |
| 20260504070244 | 10 | 181 | 0.0 | 0.0 | 0.00 | 0.00 | 0.00 | 60 | 1012.1 |